GFSNW_prec_cthk_231.txt.gz
RH
30 32 32 31 32 29 28 29 34 29 31 36 47 52 54 53 49 48 54 57 58 60 55 54 56 61 61 74 77 80 79 70 65 52 52 59 82 92 96 98 95 97 94 82
30 33 34 33 33 32 32 31 33 35 36 42 46 47 53 53 51 50 50 57 62 63 64 66 58 60 59 70 71 76 78 79 74 58 73 70 77 90 89 94 95 88 96 77
29 33 35 35 35 34 36 36 39 39 41 47 48 53 53 55 52 53 53 56 58 66 72 73 68 67 64 63 67 69 78 78 75 71 68 68 67 67 84 92 94 85 80 62
31 33 38 37 37 38 39 40 41 45 45 49 51 53 56 59 59 56 57 58 61 70 72 69 74 67 67 67 69 72 78 83 78 70 64 69 69 67 68 77 79 87 61 61
37 35 40 41 40 42 42 44 43 50 51 53 52 53 58 60 62 64 63 68 68 69 71 70 69 65 69 67 64 68 74 71 78 73 63 64 66 56 55 57 61 70 66 64
40 39 42 45 44 44 45 46 47 49 50 53 55 55 54 56 59 61 68 70 74 71 66 65 65 67 66 64 66 67 71 74 74 65 57 61 65 40 41 42 43 50 58 45
42 45 46 49 50 48 50 51 54 55 54 53 51 50 52 54 60 63 64 72 76 64 71 71 58 54 57 62 61 69 72 83 86 74 69 69 34 34 35 38 35 40 44 35
42 46 47 52 53 52 54 55 57 60 58 53 51 52 52 50 49 52 52 49 58 65 67 67 69 63 61 58 61 72 80 90 93 86 76 52 43 40 42 52 37 27 31 31
40 44 48 53 57 56 54 53 56 60 63 58 54 56 55 55 51 49 44 46 52 55 59 62 67 66 62 63 62 72 81 92 95 93 91 74 48 52 58 56 42 51 40 32
37 42 45 50 54 59 58 57 56 58 60 54 54 57 59 58 58 55 49 46 47 51 57 64 63 53 55 64 65 76 92 93 94 94 94 61 55 59 64 70 56 50 47 48
32 35 43 47 51 54 57 57 57 60 56 54 51 53 57 61 64 64 56 58 49 56 64 66 60 67 55 68 62 70 81 94 93 90 89 78 59 65 70 63 61 60 56 54
39 40 43 45 47 51 52 54 54 58 60 53 50 48 52 53 55 62 65 59 56 57 65 69 73 69 65 54 64 54 68 66 71 78 69 63 70 75 77 76 66 65 64 63
43 44 45 50 54 55 54 53 57 55 54 43 42 36 40 42 44 52 62 59 56 57 60 67 68 70 58 58 52 55 66 72 80 79 68 67 73 76 81 82 76 71 68 65
43 43 46 54 57 59 59 60 59 60 58 56 40 39 36 35 39 46 50 52 59 56 60 68 71 72 64 60 61 69 73 82 80 71 64 66 74 80 81 79 80 73 69 66
45 45 51 59 59 57 63 64 63 62 57 54 47 40 35 38 41 45 47 53 59 65 70 72 74 69 78 68 71 68 72 77 83 73 68 71 69 80 86 83 78 76 70 64
44 45 48 57 61 59 64 62 54 54 59 65 60 41 36 46 53 45 47 51 58 68 68 70 69 69 82 82 61 54 73 76 76 72 76 78 73 81 88 85 83 82 81 75
48 50 56 59 58 60 60 59 58 61 65 68 63 50 45 47 48 55 52 54 62 67 69 69 72 77 87 78 62 54 70 74 77 81 85 85 84 83 87 81 79 75 75 82
55 61 65 64 64 62 58 54 64 63 67 71 68 53 48 44 47 51 62 71 76 74 73 72 78 79 83 75 54 64 68 72 79 84 90 93 87 79 75 70 68 69 72 81
66 72 71 68 66 62 54 52 56 65 68 72 68 63 55 50 55 63 70 74 77 75 73 76 82 77 75 60 65 68 72 79 80 82 86 81 78 74 72 68 69 71 78 79
76 73 70 65 60 56 59 68 65 68 68 72 65 62 62 57 66 72 74 79 79 74 67 72 71 60 62 69 75 79 92 94 85 77 77 80 77 73 69 70 74 78 82 82
75 69 64 62 67 72 76 79 81 80 77 73 70 66 61 62 66 71 75 80 80 81 75 78 70 63 62 66 68 72 75 78 79 83 81 78 75 72 71 73 81 87 91 93
73 73 72 72 70 75 79 85 84 84 78 79 72 68 68 64 66 75 81 85 87 81 82 85 75 59 66 64 62 60 62 63 74 82 79 74 76 76 79 84 90 95 94 93
72 68 67 66 72 75 78 82 85 84 78 74 73 76 76 77 85 87 91 93 89 85 90 82 69 60 60 59 60 58 55 59 73 79 76 76 78 80 87 95 98 98 96 97
77 75 68 65 67 63 67 71 74 79 78 81 81 77 79 84 98 96 98 95 94 95 90 80 68 60 56 60 62 59 55 55 66 75 77 77 80 86 96 98 98 98 96 97
76 71 69 62 58 62 69 69 74 76 73 74 72 76 77 84 94 96 94 94 91 87 81 76 74 61 58 63 63 63 62 53 62 74 81 82 85 91 97 98 98 98 98 97
85 77 71 67 72 68 69 76 77 75 72 67 72 74 78 78 87 88 87 84 79 78 82 79 74 70 64 66 64 65 65 51 55 69 84 87 91 93 97 97 98 98 98 99
81 77 72 66 67 67 67 64 63 69 65 67 75 90 86 97 97 96 90 90 85 87 85 83 80 70 63 67 66 68 63 55 58 66 85 93 97 98 98 97 97 98 98 97

GFSNW_prec_cthk_234.txt.gz
RH
23 27 28 31 31 28 27 27 34 26 27 39 40 46 44 44 44 46 46 46 49 52 58 56 55 60 58 68 74 79 79 74 62 59 48 58 79 93 94 96 99 97 81 65
23 26 30 32 33 30 29 34 33 30 30 44 45 43 44 43 45 47 51 50 51 53 59 67 58 60 60 64 65 74 75 84 74 67 67 62 66 82 85 87 96 95 96 76
24 26 31 33 35 34 31 35 39 34 38 39 43 45 49 48 46 47 51 52 53 57 60 62 60 63 62 59 61 69 82 76 70 72 74 69 65 57 60 80 90 80 90 68
25 27 31 34 37 38 37 35 39 38 45 46 46 47 48 50 50 50 53 57 60 64 68 60 61 60 56 58 57 63 71 79 67 64 62 61 61 58 57 56 54 76 54 58
26 28 32 37 38 42 43 40 42 42 43 44 48 48 50 48 54 54 54 59 63 64 66 66 63 61 60 58 56 65 64 60 59 58 50 54 51 43 45 48 51 55 48 53
29 29 33 40 40 44 48 43 42 44 46 47 47 48 46 50 55 53 56 61 64 64 67 59 64 66 62 59 61 66 74 67 67 59 49 51 53 41 41 40 40 46 51 38
29 32 34 42 43 47 52 50 52 51 51 48 46 45 45 49 51 56 54 56 59 61 58 55 52 51 55 54 55 64 72 78 79 75 71 73 47 42 38 40 34 31 30 29
29 32 36 44 44 49 54 55 56 55 55 49 47 48 47 47 50 49 48 47 50 53 57 60 53 44 46 50 60 65 70 81 89 88 76 60 53 50 48 44 33 44 41 32
30 31 35 43 47 48 53 57 58 61 60 53 48 49 50 53 57 52 50 50 48 50 49 58 58 50 46 40 52 60 69 80 91 87 84 70 55 53 51 50 46 45 45 43
28 31 33 38 48 49 53 58 58 63 62 55 54 53 53 52 55 55 57 61 59 57 59 59 59 55 51 48 43 65 84 85 88 85 86 63 57 59 59 68 61 60 57 57
29 28 32 36 44 47 52 57 58 60 63 57 53 55 52 52 52 55 57 59 62 64 62 59 60 64 61 63 51 54 63 83 86 85 84 77 63 65 68 66 67 71 66 66
32 31 32 34 41 46 47 57 57 58 62 56 53 48 46 50 51 58 61 55 58 66 69 65 65 64 71 64 63 54 57 58 73 68 65 65 69 72 73 76 72 76 75 75
33 33 35 38 44 49 48 56 62 58 58 49 50 45 42 44 47 54 58 52 56 62 64 69 65 64 60 62 58 57 52 57 65 71 63 72 73 73 77 79 78 78 80 81
35 34 35 40 50 53 53 62 62 60 58 58 46 42 40 36 41 46 51 49 59 67 68 68 63 66 65 62 64 63 54 61 68 72 69 71 73 77 80 80 85 86 85 85
35 34 39 47 54 55 56 72 72 66 59 58 56 50 41 39 46 45 48 53 60 64 70 68 64 65 75 70 68 57 70 66 81 70 70 72 65 74 79 81 85 87 85 80
34 34 37 50 59 57 67 76 70 66 66 64 64 55 45 48 56 54 55 56 61 62 65 63 59 67 76 74 58 55 64 72 78 66 70 69 68 74 79 78 80 80 77 72
36 36 41 53 57 60 74 72 69 66 64 65 62 57 49 52 55 56 58 58 61 63 67 65 64 71 85 74 68 49 61 68 71 70 72 69 75 78 78 73 68 66 65 64
41 43 50 59 63 71 73 65 65 64 66 67 64 59 53 50 56 58 58 62 68 71 69 67 69 73 80 71 49 56 61 64 68 76 80 81 73 71 71 70 67 62 63 67
52 56 63 66 76 80 72 63 63 68 70 71 68 62 58 53 60 63 69 71 72 71 73 71 73 74 75 57 65 74 77 74 73 77 80 78 76 75 72 70 68 67 68 73
74 70 69 80 77 71 71 71 71 70 70 73 64 60 62 60 68 77 75 74 75 78 68 72 77 70 61 65 64 62 62 66 63 62 66 79 83 79 74 74 75 75 76 84
79 80 81 80 79 76 77 81 75 73 72 65 63 62 67 72 68 67 69 74 74 75 75 77 76 68 64 62 62 58 59 58 54 58 68 74 77 73 73 76 80 85 89 92
85 81 81 79 80 81 83 80 76 75 68 69 71 73 72 73 71 71 75 76 75 76 80 85 80 70 69 61 58 58 62 59 52 57 67 76 78 74 77 82 90 95 98 97
86 87 83 79 81 81 79 78 76 74 72 76 75 78 80 78 79 82 83 86 83 82 84 79 72 75 72 61 55 59 62 61 58 55 63 73 78 76 81 88 97 98 98 97
86 79 75 72 74 67 64 67 74 83 78 80 82 83 86 88 87 87 94 92 91 88 83 76 73 79 77 69 62 60 62 65 61 53 58 68 78 79 86 94 98 98 98 96
82 74 72 63 61 64 72 73 76 78 77 79 85 85 89 91 93 87 87 89 85 79 77 81 89 90 83 76 71 66 63 63 62 55 58 66 80 85 88 96 98 98 98 96
82 75 73 71 73 70 73 72 73 72 73 75 77 77 79 76 79 80 84 82 75 79 80 81 85 84 82 82 77 67 61 64 61 58 61 69 84 90 93 96 97 98 98 98
81 78 76 75 77 79 78 75 71 72 72 74 75 84 80 89 91 83 78 82 93 91 90 90 90 86 80 78 75 66 57 64 61 58 62 72 84 92 95 96 97 98 98 98

GFSNW_prec_cthk_240.txt.gz
RH
18 17 16 17 18 19 24 37 49 39 22 54 38 41 40 34 33 35 42 42 49 46 48 57 54 57 68 43 47 56 53 66 73 62 66 77 79 81 84 96 97 97 94 67
18 18 16 17 19 19 33 44 45 44 30 57 50 38 38 31 34 40 41 43 50 48 55 57 56 50 67 52 45 48 47 64 72 61 74 72 78 83 77 80 88 84 92 75
19 18 17 17 19 20 27 45 41 40 41 49 46 49 46 43 36 37 39 44 49 53 61 52 54 51 61 55 51 41 57 62 64 78 82 71 63 62 81 81 77 75 79 70
22 19 17 17 19 21 27 43 37 49 50 43 48 46 44 42 44 46 44 46 52 53 63 60 64 57 58 52 58 56 76 66 59 57 59 51 45 45 50 58 66 75 66 62
26 23 19 18 19 22 30 37 40 43 39 49 46 47 47 41 45 44 49 47 53 58 63 60 61 59 55 52 50 59 60 62 57 51 44 44 52 47 49 46 46 49 50 51
31 26 22 19 20 23 35 43 45 43 52 52 50 55 56 53 44 46 44 46 48 51 54 55 50 50 48 48 51 50 60 66 66 67 55 52 44 39 42 43 47 48 46 40
29 29 27 22 21 23 41 38 45 55 55 53 53 50 47 44 48 50 51 50 49 50 52 47 47 46 42 43 42 43 50 58 66 71 64 67 63 59 54 44 34 36 40 33
32 32 30 26 23 24 35 40 44 52 56 52 53 52 51 49 49 53 53 53 54 50 47 51 59 52 61 53 41 44 55 59 72 82 73 57 51 59 66 54 43 56 53 45
33 33 33 30 26 25 32 42 44 52 56 50 51 56 58 56 61 61 58 57 56 50 54 61 60 56 55 55 53 49 58 53 75 91 95 86 66 68 65 55 54 64 76 60
34 34 34 32 29 27 33 43 47 50 53 46 53 55 60 58 58 60 61 57 63 58 61 70 64 62 58 55 49 56 68 71 78 76 80 66 51 68 63 62 69 66 68 68
34 34 35 34 33 28 31 39 48 49 53 54 54 57 57 55 57 60 61 63 57 62 66 65 61 62 63 57 56 56 66 74 76 70 82 90 76 72 73 68 64 65 65 62
33 33 33 35 34 32 31 41 46 50 53 51 52 55 55 57 56 60 60 59 63 67 63 66 67 70 68 61 61 55 61 63 72 75 66 59 62 68 65 65 62 60 60 64
34 32 32 34 34 33 31 36 48 47 46 42 45 48 50 54 53 52 59 57 57 60 63 67 65 64 59 57 52 55 53 58 64 65 54 57 56 60 65 64 61 63 65 66
36 35 32 35 35 33 32 37 45 44 47 46 44 50 50 52 60 56 51 52 60 64 70 74 70 67 60 61 54 55 56 59 62 57 64 65 66 61 61 62 68 66 67 67
37 37 36 36 36 35 34 38 44 45 46 53 54 52 53 57 57 55 56 58 56 62 68 68 65 60 67 61 57 54 59 63 72 72 66 70 67 69 69 73 74 75 71 65
38 38 39 41 41 40 42 42 41 46 54 53 54 61 60 58 60 61 59 59 66 64 66 65 61 59 65 68 54 46 53 56 61 59 61 69 74 71 70 72 75 73 72 70
43 40 51 48 45 44 49 48 52 51 57 58 57 62 72 64 63 64 63 59 59 65 67 65 62 59 72 69 59 41 50 53 58 66 91 88 82 70 63 62 63 60 65 68
57 49 52 55 55 57 54 53 51 51 57 57 60 66 68 71 68 67 62 65 63 62 62 61 58 61 63 63 46 48 56 78 84 75 61 54 49 47 51 54 59 65 76 78
63 61 59 58 56 54 55 55 58 55 57 65 63 70 81 77 78 75 68 67 69 61 65 63 65 64 64 49 51 57 78 79 73 46 46 49 48 47 53 61 68 75 78 77
64 65 62 54 51 53 52 59 63 67 70 69 71 74 71 75 76 77 78 80 75 78 68 70 72 60 54 53 59 72 81 77 57 50 49 50 52 51 51 59 70 77 77 76
67 70 69 65 61 64 63 65 67 69 70 68 71 69 67 73 78 78 85 85 78 80 66 77 74 63 65 66 70 73 77 60 60 57 53 50 53 55 50 58 69 76 75 83
72 72 73 72 72 70 70 75 72 72 69 66 71 74 67 76 75 72 74 72 64 64 70 83 71 68 70 81 85 77 68 63 61 55 53 51 51 57 59 65 74 78 86 96
84 83 81 79 76 79 72 77 72 78 72 79 81 80 73 80 76 74 75 81 70 63 79 74 65 74 78 78 83 80 72 71 63 58 56 50 50 56 62 68 80 84 97 98
84 84 84 81 82 75 72 73 75 78 83 83 84 81 79 78 78 78 85 73 71 78 74 70 81 88 90 94 92 87 83 70 65 61 55 49 47 54 59 71 81 91 98 98
93 89 93 87 81 79 77 79 87 92 94 95 93 94 91 92 91 84 78 80 80 72 72 84 94 94 92 89 87 86 81 71 63 63 58 50 45 52 55 65 83 96 98 98
98 93 89 82 79 82 82 83 86 92 91 93 96 94 97 98 92 84 84 76 71 78 94 98 92 88 86 86 84 83 77 75 73 68 55 52 46 53 56 59 78 93 98 98
93 88 86 89 87 88 85 76 75 84 90 87 85 90 85 80 76 72 69 78 90 92 96 94 92 88 87 87 86 82 78 77 79 68 52 53 57 56 59 58 63 88 95 98

GFSNW_prec_cthk_243.txt.gz
RH
18 16 16 17 17 16 17 32 44 38 22 41 43 41 41 32 28 31 37 37 40 43 41 55 50 48 47 52 47 46 49 66 82 96 82 79 86 94 93 97 96 94 98 99
20 18 16 16 17 17 27 33 39 44 27 49 48 39 32 32 28 32 37 35 39 39 49 57 45 42 47 52 46 48 58 69 78 80 73 65 65 75 86 93 85 96 96 98
22 21 18 16 17 16 24 39 36 39 33 42 48 52 49 43 34 36 35 38 40 44 48 50 49 49 50 46 43 48 53 67 68 76 74 71 59 51 65 75 85 74 82 74
25 23 21 19 18 16 25 33 34 31 37 36 42 47 48 43 42 41 42 40 42 47 56 56 52 47 44 40 39 40 50 64 57 54 49 46 50 46 44 52 61 69 57 54
28 26 24 22 20 18 23 29 29 37 36 47 49 47 51 46 40 45 50 49 47 48 51 49 52 46 44 40 35 40 43 52 48 49 42 48 44 42 39 37 37 40 42 41
32 29 27 25 24 21 21 28 33 35 44 43 48 50 51 52 49 44 44 44 47 46 48 45 43 42 39 40 42 40 45 51 54 58 46 45 43 45 53 52 48 45 44 43
35 34 30 27 27 24 24 27 37 40 40 41 47 46 49 50 48 47 45 47 46 44 42 41 40 36 37 40 38 41 42 46 55 60 58 68 56 50 47 53 58 60 54 60
37 36 33 30 29 28 30 32 34 42 47 43 43 48 51 50 50 50 48 49 54 51 49 48 50 48 52 46 44 43 46 54 63 74 78 57 48 63 61 65 68 60 58 60
38 38 37 34 32 31 32 33 34 40 41 39 40 46 49 55 56 56 57 59 53 51 52 56 61 63 54 56 49 47 51 56 69 72 77 79 57 74 67 71 77 62 60 58
40 39 38 39 36 35 33 33 35 37 40 36 41 45 51 52 57 63 60 58 57 55 59 63 67 65 54 59 49 52 63 70 74 82 84 64 51 62 62 86 82 66 65 58
42 40 42 43 43 39 36 34 36 39 43 38 40 43 47 50 54 62 60 64 60 61 64 67 66 67 62 60 52 54 60 72 75 75 78 73 58 62 80 75 71 68 64 64
47 42 45 45 45 44 42 39 41 43 45 45 42 40 40 44 49 56 61 67 63 61 64 66 69 70 64 62 66 44 55 59 70 71 68 56 55 58 57 62 62 61 64 61
46 45 46 44 45 45 45 42 46 50 47 42 39 34 35 40 43 48 60 64 64 61 65 68 69 64 53 60 54 50 47 49 58 57 52 54 55 58 60 63 63 61 59 63
45 44 44 45 44 44 46 44 46 47 43 40 33 36 38 41 43 47 51 58 64 63 59 67 69 66 56 59 55 54 50 49 49 51 55 59 61 65 69 71 68 73 70 71
45 44 44 43 43 44 45 45 47 48 42 44 43 40 40 40 42 51 57 60 59 57 62 69 68 61 62 56 57 54 45 49 58 57 55 64 74 74 74 82 78 68 66 64
54 45 44 43 42 44 47 47 45 44 45 42 40 43 40 45 48 53 56 62 63 64 65 61 59 57 60 63 61 40 43 49 50 52 55 69 75 79 73 64 55 51 50 53
64 55 51 45 43 44 45 44 46 40 45 48 46 46 48 47 54 59 61 65 69 66 71 66 57 55 67 67 59 39 43 45 51 64 76 83 71 54 49 46 42 43 48 55
70 63 57 51 51 53 52 55 54 53 57 51 48 48 50 58 63 66 61 64 65 66 64 61 56 55 58 57 38 39 48 56 66 81 75 58 47 46 44 44 44 46 49 55
76 72 70 70 67 59 58 60 62 62 56 50 45 50 60 63 73 73 71 70 70 61 64 61 61 62 59 43 42 45 58 77 79 76 54 47 46 44 44 46 46 48 53 58
83 80 78 75 71 66 66 70 74 69 57 49 46 48 61 73 80 82 78 79 80 80 70 70 69 59 51 48 47 53 72 77 89 62 52 48 44 44 44 49 53 58 63 64
84 81 79 72 80 77 72 64 66 62 61 48 44 47 61 77 86 89 90 92 86 85 74 76 75 66 56 55 58 65 77 85 73 55 52 52 47 46 47 49 56 62 70 76
79 74 75 75 77 75 76 78 67 65 51 45 51 60 63 71 82 86 83 83 76 70 74 81 75 64 62 65 67 89 91 80 65 57 55 55 51 46 48 52 53 65 76 87
79 80 85 82 83 88 80 81 73 57 47 49 60 76 72 74 83 82 80 82 79 68 75 73 65 70 75 78 79 80 88 80 69 62 58 56 52 46 44 51 53 61 75 90
82 83 89 89 88 78 71 62 57 54 61 69 80 81 80 85 89 84 83 75 72 77 75 72 85 85 91 95 92 96 92 84 74 72 66 62 60 48 45 53 56 57 71 90
85 83 86 81 80 72 68 66 66 72 84 91 93 90 87 87 85 80 79 83 84 78 84 90 93 98 95 94 96 94 87 82 79 80 77 68 63 55 48 56 58 58 66 86
86 86 90 83 82 82 75 74 81 87 94 99 98 98 95 95 91 92 90 83 81 92 92 92 93 92 88 88 87 85 85 83 82 80 76 67 61 59 55 59 58 58 61 77
94 92 89 87 84 83 81 79 82 89 94 98 98 97 90 90 94 93 88 94 92 94 92 91 89 87 81 78 78 76 74 74 74 68 61 58 55 54 60 65 61 56 61 64

GFSNW_prec_cthk_246.txt.gz
RH
23 19 19 18 17 17 17 27 30 37 23 35 43 40 34 31 32 31 32 33 34 36 38 45 42 38 40 49 48 42 48 68 83 83 74 67 66 86 88 96 96 90 97 99
28 21 20 19 18 17 21 30 34 34 25 40 46 36 35 31 27 29 34 33 33 34 40 49 43 41 40 43 45 49 44 59 78 72 69 64 57 58 76 80 87 87 93 95
31 24 22 21 20 18 26 32 38 37 33 34 41 45 44 41 32 33 32 33 36 38 43 44 46 46 39 36 39 42 43 55 56 69 63 58 58 54 53 63 73 72 81 71
34 30 24 23 22 20 27 32 31 28 35 29 38 43 43 41 38 38 38 39 38 41 47 49 46 41 38 34 32 33 43 52 50 49 41 42 45 41 41 51 54 64 54 60
39 36 28 26 24 23 23 32 26 29 32 34 37 44 45 44 43 41 42 42 42 41 42 43 49 42 40 39 33 37 41 49 48 51 44 39 39 38 41 47 46 46 56 70
41 41 36 28 27 24 24 29 25 29 33 38 42 41 41 43 45 42 43 43 42 41 41 41 41 40 38 37 37 37 40 46 49 52 43 42 51 50 49 54 56 57 68 71
43 44 41 31 30 26 24 27 30 29 32 37 40 38 41 46 51 51 45 43 43 43 43 42 41 36 36 36 36 36 41 45 50 56 49 46 53 55 58 60 65 66 68 70
42 46 44 36 32 29 28 30 34 34 37 32 35 38 40 45 46 48 47 46 47 49 47 49 45 45 45 40 40 38 42 47 53 58 66 49 52 63 64 67 68 64 57 56
44 45 50 42 35 33 31 34 34 37 34 34 35 35 39 46 50 52 50 53 55 55 57 54 58 56 51 52 45 40 45 49 60 67 70 67 52 49 52 61 76 67 64 61
48 44 51 52 40 38 33 38 40 40 39 29 32 36 40 41 46 52 52 57 59 57 62 61 61 60 50 59 48 48 55 59 63 72 72 61 53 52 52 76 72 64 63 59
54 47 51 53 47 42 38 37 42 39 38 31 30 36 39 41 43 50 52 57 60 63 63 64 62 65 58 58 49 49 53 62 67 69 72 67 53 52 59 58 54 54 52 54
58 52 52 54 53 44 43 40 42 42 43 37 32 33 37 40 43 45 49 52 55 56 62 64 63 67 66 61 64 45 50 47 58 59 57 48 50 55 54 56 58 56 57 58
62 58 55 53 60 52 44 42 45 47 46 41 37 33 36 38 39 42 48 53 55 61 63 67 66 65 60 59 53 47 42 45 51 52 44 47 47 52 61 66 68 71 74 73
68 62 57 56 60 59 51 49 48 49 49 46 34 29 28 31 35 37 42 47 57 65 67 71 71 68 58 57 51 53 48 46 43 46 43 46 53 61 64 66 69 71 74 68
76 65 60 60 61 60 58 52 52 50 50 45 37 32 30 31 33 39 42 46 53 61 69 74 73 66 63 57 56 50 42 43 49 51 48 52 52 67 72 68 59 55 51 47
81 68 65 64 61 60 58 58 52 51 49 46 40 37 34 37 40 41 46 52 58 61 62 68 62 58 59 59 60 42 38 41 43 45 49 54 61 67 52 52 52 49 46 43
84 74 70 66 63 59 56 46 41 46 51 45 43 40 39 39 41 46 54 58 62 63 66 68 62 63 64 64 56 37 37 41 40 46 54 66 64 53 49 47 44 43 45 45
88 78 72 68 64 60 56 48 47 52 55 46 50 45 47 44 49 55 56 60 64 71 70 69 67 66 63 60 40 37 38 43 54 62 69 67 50 46 42 41 41 42 46 49
92 86 82 77 68 59 59 57 56 59 57 56 49 48 46 50 54 59 63 62 67 65 69 68 65 68 64 45 43 42 45 53 68 74 69 57 46 45 45 43 46 47 50 54
95 92 86 81 72 60 60 67 66 68 68 57 50 41 52 55 59 64 68 69 69 74 72 72 71 64 51 48 48 45 52 60 69 76 65 53 52 48 45 45 48 51 50 57
96 92 88 80 73 74 73 73 71 70 67 51 43 39 54 65 62 69 73 83 83 85 80 80 80 70 59 55 53 52 54 65 76 76 60 62 57 49 45 43 45 50 51 55
90 86 91 88 83 82 80 78 76 72 59 50 46 46 48 58 66 74 84 87 87 85 84 88 82 67 63 58 60 65 69 80 78 66 66 66 61 53 52 54 45 48 53 54
91 93 89 84 83 85 77 80 74 69 56 46 49 56 54 65 73 83 83 83 83 79 88 82 73 73 71 68 72 79 88 93 85 78 76 72 66 62 61 58 51 48 54 57
88 89 94 86 83 75 70 63 58 56 54 54 57 61 66 70 84 85 85 80 82 86 86 78 82 84 82 81 84 87 91 90 92 88 84 79 74 70 65 59 53 52 54 58
89 83 83 81 78 68 65 65 65 65 65 68 75 79 81 87 88 84 86 89 85 77 77 83 88 85 87 88 89 88 93 92 90 90 85 80 73 67 57 57 55 56 56 59
85 80 83 77 81 81 77 75 81 78 82 89 91 95 95 91 88 89 83 83 79 84 88 92 89 88 90 91 88 86 84 83 82 75 68 64 57 54 54 49 57 60 60 59
86 86 88 83 79 81 79 83 86 92 93 98 98 97 90 89 86 86 84 80 82 89 92 91 91 90 88 85 83 78 73 69 66 62 58 53 47 44 45 48 49 57 62 64

GFSNW_prec_cthk_252.txt.gz
RH
38 30 32 31 30 31 27 22 29 31 28 27 35 34 34 29 28 28 26 27 29 32 32 34 36 33 33 35 32 34 34 46 54 56 62 53 51 61 66 91 97 84 95 96
48 38 35 34 33 32 28 28 33 42 34 32 34 32 32 31 31 29 29 30 29 31 33 38 37 35 36 34 32 31 30 45 49 35 36 37 49 50 53 65 79 84 79 82
48 48 39 39 35 38 31 36 41 45 40 32 29 29 32 32 31 31 29 28 29 32 35 36 38 38 36 32 31 30 30 38 45 53 47 44 46 44 41 49 64 68 73 77
50 48 48 42 39 41 36 41 41 39 45 39 33 29 30 31 33 29 29 30 30 33 40 42 40 38 35 32 32 32 35 39 38 39 41 39 48 48 49 46 45 55 66 68
49 51 50 47 43 44 41 42 42 38 36 35 33 32 36 33 33 33 34 34 34 36 37 36 42 39 38 35 37 36 37 38 38 42 36 40 52 51 52 57 58 63 64 65
54 51 51 52 46 46 47 37 44 37 37 34 38 34 34 33 33 34 33 34 39 39 37 36 36 38 37 38 38 37 38 42 44 45 37 40 53 49 49 50 55 59 65 61
59 51 53 53 52 51 47 37 40 41 38 37 31 29 30 30 33 34 38 38 40 38 37 38 38 39 37 37 37 35 40 42 48 49 42 43 42 46 50 52 52 53 54 54
61 58 50 54 55 59 50 43 38 41 40 34 34 31 31 29 34 38 38 39 40 42 42 46 44 41 40 40 39 42 39 44 48 53 57 41 49 47 52 53 51 48 51 54
65 61 54 50 56 62 55 49 43 39 40 35 31 37 38 38 39 42 42 44 45 44 51 50 49 44 44 47 46 47 46 43 48 58 55 55 38 45 45 44 53 46 48 50
76 66 58 51 56 64 59 54 49 43 39 33 33 35 38 37 39 42 42 44 46 48 54 59 57 53 46 52 48 55 56 55 54 61 59 46 37 37 38 51 46 42 42 43
87 71 64 55 56 67 63 58 54 49 42 37 32 35 35 38 39 42 41 46 50 53 54 56 55 55 52 53 47 47 50 55 59 60 64 59 38 38 41 41 38 40 44 48
94 77 68 60 62 70 67 64 56 55 51 43 36 36 39 38 39 40 40 42 42 46 52 54 52 56 58 55 60 49 55 48 51 48 46 38 39 39 39 38 37 42 49 52
98 82 73 66 65 73 70 66 62 62 63 49 42 37 37 38 40 42 42 42 41 42 40 45 52 52 53 58 56 49 47 46 47 43 35 38 38 34 33 37 42 49 47 43
99 89 77 71 69 80 76 70 65 63 66 62 45 35 35 34 37 42 42 41 45 46 47 48 51 51 49 53 50 51 45 45 44 42 38 35 32 34 39 41 47 44 40 39
99 92 80 75 76 87 83 76 71 66 60 61 48 38 35 33 34 38 43 46 45 46 50 53 54 53 57 58 59 58 47 42 46 44 35 35 38 38 39 45 39 37 36 35
98 94 82 78 80 94 89 86 80 70 69 62 56 46 40 39 38 42 46 46 47 47 47 52 53 53 56 58 58 45 36 36 39 39 39 39 38 40 42 42 37 34 33 35
98 98 89 82 90 95 88 73 67 71 76 69 61 50 46 45 44 46 48 49 48 47 49 50 50 53 58 61 59 41 37 38 39 41 42 41 44 49 46 37 33 30 31 36
98 96 94 92 99 99 94 80 71 71 77 70 65 63 54 50 50 52 53 55 53 54 54 55 54 58 60 59 43 40 41 40 40 40 42 46 49 52 41 33 33 35 40 45
98 98 100 99 99 99 96 94 88 85 77 72 66 64 62 54 54 53 56 57 63 59 59 57 58 62 58 42 39 42 43 43 42 41 39 50 55 49 39 36 36 40 44 51
99 99 99 99 99 97 97 98 98 93 84 71 63 60 64 58 58 61 59 59 55 59 55 59 63 55 45 41 39 40 43 48 52 50 55 59 60 46 42 44 46 46 49 53
99 98 98 96 98 96 97 98 94 91 85 73 63 59 61 61 61 61 57 61 60 59 57 60 63 52 46 47 47 44 43 49 60 64 66 68 66 53 49 49 51 52 55 55
91 92 98 97 97 98 95 95 92 84 72 66 59 58 62 66 65 64 64 63 64 69 71 70 65 49 53 55 53 54 57 53 57 65 70 70 68 63 53 55 57 58 56 56
96 95 97 96 97 94 85 84 79 75 67 62 55 62 65 70 71 75 71 74 75 73 75 69 55 59 63 60 56 58 61 61 66 75 76 75 65 61 63 62 58 55 53 51
93 95 96 89 86 76 66 64 64 59 56 55 52 57 61 69 75 74 75 75 75 75 72 58 53 62 68 65 64 67 71 74 76 77 79 75 73 71 66 62 55 47 44 46
86 83 87 85 70 67 63 59 61 62 60 57 63 66 65 71 73 69 68 75 73 69 58 53 62 70 72 74 79 82 83 84 85 86 84 80 70 63 58 52 51 47 39 35
88 84 81 80 74 73 67 67 65 62 63 65 68 74 76 75 68 72 70 71 69 59 59 66 69 74 76 83 86 92 89 90 89 85 77 69 64 58 55 51 45 42 38 36
88 87 80 79 75 72 70 75 70 70 71 77 78 78 73 77 77 76 71 70 63 65 70 74 82 84 86 91 94 94 85 81 78 76 71 64 60 55 49 43 37 32 28 30